Le nostre stazioni meteo in Italia

Pubblicità
Il mio iltempo24.it
Kinlochewe, Gran Bretagna (99092): Temperatura & dewpoint: 17.08.2017 09:00:00 - 23.08.2017 09:00:00 (BST)Kinlochewe, Gran Bretagna (99092): Temperatura -20cm: 17.08.2017 09:00:00 - 23.08.2017 09:00:00 (BST)Kinlochewe, Gran Bretagna (99092): visibility: 17.08.2017 09:00:00 - 23.08.2017 09:00:00 (BST)Kinlochewe, Gran Bretagna (99092): precipitazioni: 17.08.2017 09:00:00 - 23.08.2017 09:00:00 (BST)
Data & Tempo tt [°C] td [°C] tt -20cm [°C] vv [km] rr [mm]
23.08.2017 09:00:00 - - - - -
23.08.2017 08:00:00 16,4 15,3 - - 0,2
23.08.2017 07:00:00 15,4 13,9 - - 0,8
23.08.2017 06:00:00 16,1 14,9 - - 0,6
23.08.2017 05:00:00 16,2 14,9 - - 2,2
23.08.2017 04:00:00 17,0 14,2 - - 0,2
23.08.2017 03:00:00 16,9 14,1 - - 0,0
23.08.2017 02:00:00 16,8 14,1 - - 0,0
23.08.2017 01:00:00 17,4 14,1 - - 0,0
23.08.2017 00:00:00 17,7 14,5 - - 0,0
22.08.2017 23:00:00 17,2 14,5 - - 0,0
22.08.2017 22:00:00 17,4 14,7 - - 0,0
22.08.2017 21:00:00 17,9 14,8 - - 0,0
22.08.2017 20:00:00 18,9 15,3 - - 0,0
22.08.2017 19:00:00 19,8 15,3 - - 0,0
22.08.2017 18:00:00 20,6 16,6 - - 0,0
22.08.2017 17:00:00 19,8 16,0 - - 0,0
22.08.2017 16:00:00 19,0 15,6 - - 0,0
22.08.2017 15:00:00 18,6 15,7 - - 0,0
22.08.2017 14:00:00 17,7 15,9 - - 0,0
22.08.2017 13:00:00 17,7 15,5 - - 0,4
22.08.2017 12:00:00 15,8 13,9 - - 0,2
22.08.2017 11:00:00 16,6 13,7 - - 0,0
22.08.2017 10:00:00 15,8 13,6 14,0 - 0,0
22.08.2017 09:00:00 14,4 13,8 - - 0,4
22.08.2017 08:00:00 13,7 12,8 - - 0,6
22.08.2017 07:00:00 13,4 12,5 - - 0,6
22.08.2017 06:00:00 13,7 12,4 - - 0,4
22.08.2017 05:00:00 13,8 12,4 - - 0,2
22.08.2017 04:00:00 13,2 12,1 - - 0,0
22.08.2017 03:00:00 13,1 11,2 - - 0,0
22.08.2017 02:00:00 13,1 11,3 - - 0,0
22.08.2017 01:00:00 14,4 11,4 - - 0,0
22.08.2017 00:00:00 14,9 11,2 - - 0,0
21.08.2017 23:00:00 14,9 11,2 - - 0,0
21.08.2017 22:00:00 15,4 11,4 - - 0,0
21.08.2017 21:00:00 15,1 11,7 - - 0,0
21.08.2017 20:00:00 16,0 11,5 - - 0,0
21.08.2017 19:00:00 16,8 11,9 - - 0,0
21.08.2017 18:00:00 18,0 12,2 - - 0,0
21.08.2017 17:00:00 18,6 11,4 - - 0,0
21.08.2017 16:00:00 18,7 11,4 - - 0,0
21.08.2017 15:00:00 19,1 11,0 - - 0,0
21.08.2017 14:00:00 18,0 11,5 - - 0,0
21.08.2017 13:00:00 17,0 11,1 - - 0,0
21.08.2017 12:00:00 16,3 10,9 - - 0,0
21.08.2017 11:00:00 16,2 10,8 - - 0,0
21.08.2017 10:00:00 15,4 10,3 13,7 - 0,0
21.08.2017 09:00:00 14,9 11,1 - - 0,0
21.08.2017 08:00:00 12,0 10,6 - - 0,0
21.08.2017 07:00:00 9,6 9,3 - - 0,0
21.08.2017 06:00:00 9,7 8,8 - - 0,0
21.08.2017 05:00:00 9,1 8,3 - - 0,0
21.08.2017 04:00:00 9,8 9,3 - - 0,2
21.08.2017 03:00:00 8,6 8,6 - - 0,0
21.08.2017 02:00:00 7,7 7,6 - - 0,0
21.08.2017 01:00:00 7,7 7,6 - - 0,0
21.08.2017 00:00:00 7,4 7,1 - - 0,0
20.08.2017 23:00:00 8,5 8,3 - - 0,0
20.08.2017 22:00:00 8,6 7,9 - - 0,0
20.08.2017 21:00:00 10,5 9,4 - - 0,0
20.08.2017 20:00:00 13,0 10,2 - - 0,0
20.08.2017 19:00:00 15,1 10,2 - - 0,0
20.08.2017 18:00:00 14,7 10,5 - - 0,0
20.08.2017 17:00:00 14,2 10,6 - - 0,0
20.08.2017 16:00:00 14,1 10,7 - - 0,0
20.08.2017 15:00:00 14,3 11,2 - - 0,0
20.08.2017 14:00:00 13,8 10,4 - - 0,0
20.08.2017 13:00:00 14,2 11,6 - - 0,0
20.08.2017 12:00:00 13,9 11,2 - - 0,0
20.08.2017 11:00:00 13,4 11,5 - - 0,0
20.08.2017 10:00:00 13,3 12,0 13,9 - 0,0
20.08.2017 09:00:00 12,4 11,6 - - 0,0
20.08.2017 08:00:00 11,8 11,4 - - 0,2
20.08.2017 07:00:00 11,5 11,1 - - 0,2
20.08.2017 06:00:00 11,3 10,9 - - 0,6
20.08.2017 05:00:00 11,7 11,0 - - 0,0
20.08.2017 04:00:00 11,8 10,7 - - 0,4
20.08.2017 03:00:00 12,6 10,0 - - 0,0
20.08.2017 02:00:00 12,4 9,9 - - 0,0
20.08.2017 01:00:00 12,5 10,9 - - 1,0
20.08.2017 00:00:00 12,7 11,4 - - 0,6
19.08.2017 23:00:00 13,0 10,8 - - 0,2
19.08.2017 22:00:00 12,9 10,8 - - 0,4
19.08.2017 21:00:00 13,4 10,8 - - 0,0
19.08.2017 20:00:00 13,4 11,5 - - 0,0
19.08.2017 19:00:00 13,2 11,7 - - 2,0
19.08.2017 18:00:00 13,8 12,2 - - 1,2
19.08.2017 17:00:00 14,8 12,5 - - 0,6
19.08.2017 16:00:00 13,8 13,0 - - 3,6
19.08.2017 15:00:00 13,8 12,8 - - 1,4
19.08.2017 14:00:00 14,9 12,3 - - 0,0
19.08.2017 13:00:00 14,1 12,7 - - 0,4
19.08.2017 12:00:00 14,3 13,2 - - 1,4
19.08.2017 11:00:00 13,7 12,2 - - 1,2
19.08.2017 10:00:00 13,4 11,9 14,0 - 2,2
19.08.2017 09:00:00 13,3 11,3 - - 0,4
19.08.2017 08:00:00 12,4 11,1 - - 1,8
19.08.2017 07:00:00 12,2 10,7 - - 1,6
19.08.2017 06:00:00 12,4 10,6 - - 3,8
19.08.2017 05:00:00 12,4 10,2 - - 0,6
19.08.2017 04:00:00 11,8 10,1 - - 1,6
19.08.2017 03:00:00 11,9 10,0 - - 1,4
19.08.2017 02:00:00 12,0 10,0 - - 1,4
19.08.2017 01:00:00 12,4 10,2 - - 0,2
19.08.2017 00:00:00 12,0 11,2 - - 2,0
18.08.2017 23:00:00 12,0 11,2 - - 3,2
18.08.2017 22:00:00 13,1 11,9 - - 0,4
18.08.2017 21:00:00 13,5 11,3 - - 0,2
18.08.2017 20:00:00 14,8 10,0 - - 0,0
18.08.2017 19:00:00 15,3 10,2 - - 0,0
18.08.2017 18:00:00 16,4 10,6 - - 0,0
18.08.2017 17:00:00 14,5 11,4 - - 0,0
18.08.2017 16:00:00 13,6 11,4 - - 0,2
18.08.2017 15:00:00 13,6 10,2 - - 0,2
18.08.2017 14:00:00 14,8 10,2 - - 0,0
18.08.2017 13:00:00 14,3 9,7 - - 0,0
18.08.2017 12:00:00 12,7 9,1 - - 0,0
18.08.2017 11:00:00 11,4 9,9 - - 0,2
18.08.2017 10:00:00 10,8 9,1 14,0 - 0,0
18.08.2017 09:00:00 11,3 10,9 - - 0,2
18.08.2017 08:00:00 11,0 10,5 - - 2,2
18.08.2017 07:00:00 11,4 11,0 - - 1,4
18.08.2017 06:00:00 10,7 10,3 - - 0,0
18.08.2017 05:00:00 11,5 10,7 - - 0,0
18.08.2017 04:00:00 11,9 11,2 - - 0,0
18.08.2017 03:00:00 11,6 11,3 - - 2,6
18.08.2017 02:00:00 11,6 11,0 - - 0,4
18.08.2017 01:00:00 12,0 10,9 - - 0,2
18.08.2017 00:00:00 12,1 10,7 - - 0,0
17.08.2017 23:00:00 13,1 11,2 - - 0,0
17.08.2017 22:00:00 12,9 11,2 - - 0,0
17.08.2017 21:00:00 12,6 11,4 - - 0,0
17.08.2017 20:00:00 13,8 11,7 - - 0,2
17.08.2017 19:00:00 15,5 9,8 - - 0,0
17.08.2017 18:00:00 16,3 10,8 - - 0,0
17.08.2017 17:00:00 16,8 10,6 - - 0,0
17.08.2017 16:00:00 19,1 11,0 - - 0,0
17.08.2017 15:00:00 18,2 12,0 - - 0,0
17.08.2017 14:00:00 18,8 13,5 - - 0,2
17.08.2017 13:00:00 14,4 12,2 - - 0,4
17.08.2017 12:00:00 14,4 12,9 - - 0,6
17.08.2017 11:00:00 13,8 11,8 - - 0,4
17.08.2017 10:00:00 15,5 10,4 14,0 10 0,0
17.08.2017 09:00:00 15,1 10,6 - - 0,0

tt = Temperatura
td = dewpoint
tt -20cm = Temperatura -20cm
vv = visibility
rr = precipitazioni

Stazioni seguenti

WeatherPro
AMSI
MeteoEarth